DNO633 LGKF-LGAV

Flight info

Callsign DNO633
Flight time 0h 41m
Altitude 23000
Route ARA3E ARA Y144 NEMES NEMES1Q
Aircraft A320/M-SDE3FGHIRWY/LB1

Departure

Time 2026-04-15 14:04
Airport Kefallinia Airport (LGKF)

Arrival

Time 2026-04-15 14:45
Airport Athens Eleftherios Venizelos International Airport (LGAV)
Time Latitude Longitude Altitude Speed Heading
2026-04-15 13:35 38.11855 20.50445 68 ft 0 kts 56°
2026-04-15 13:56 38.11846 20.50426 58 ft 4 kts 66°
2026-04-15 13:56 38.11839 20.50394 58 ft 4 kts 91°
2026-04-15 13:56 38.11844 20.50361 61 ft 4 kts 115°
2026-04-15 13:56 38.11850 20.50346 65 ft 0 kts 117°
2026-04-15 13:57 38.11836 20.50354 58 ft 4 kts 161°
2026-04-15 13:57 38.11822 20.50364 62 ft 0 kts 146°
2026-04-15 13:59 38.11821 20.50365 62 ft 2 kts 146°
2026-04-15 13:59 38.11795 20.50368 61 ft 8 kts 205°
2026-04-15 13:59 38.11720 20.50304 63 ft 16 kts 198°
2026-04-15 14:00 38.11628 20.50363 64 ft 16 kts 148°
2026-04-15 14:00 38.11526 20.50446 62 ft 19 kts 147°
2026-04-15 14:00 38.11409 20.50549 60 ft 22 kts 146°
2026-04-15 14:00 38.11278 20.50659 53 ft 23 kts 146°
2026-04-15 14:01 38.11112 20.50753 59 ft 10 kts 181°
2026-04-15 14:01 38.11089 20.50808 57 ft 6 kts 63°
2026-04-15 14:01 38.11111 20.50799 55 ft 0 kts 324°
2026-04-15 14:03 38.11132 20.50780 54 ft 21 kts 325°
2026-04-15 14:03 38.11498 20.50473 59 ft 100 kts 326°
2026-04-15 14:03 38.12247 20.49840 67 ft 156 kts 326°
2026-04-15 14:04 38.13151 20.49080 701 ft 154 kts 323°
2026-04-15 14:04 38.14036 20.48297 1336 ft 158 kts 322°
2026-04-15 14:04 38.14935 20.47453 1926 ft 164 kts 322°
2026-04-15 14:04 38.15851 20.46589 2512 ft 165 kts 323°
2026-04-15 14:05 38.16793 20.45726 3034 ft 169 kts 323°
2026-04-15 14:05 38.17753 20.44852 3485 ft 180 kts 323°
2026-04-15 14:05 38.18836 20.43869 3799 ft 203 kts 323°
2026-04-15 14:05 38.20053 20.42764 4123 ft 227 kts 323°
2026-04-15 14:06 38.21392 20.41548 4651 ft 242 kts 324°
2026-04-15 14:06 38.22767 20.40304 5523 ft 244 kts 324°
2026-04-15 14:06 38.24156 20.39047 6380 ft 247 kts 324°
2026-04-15 14:06 38.25540 20.37722 7107 ft 255 kts 315°
2026-04-15 14:07 38.26557 20.35826 7463 ft 275 kts 288°
2026-04-15 14:07 38.26846 20.33383 7978 ft 285 kts 261°
2026-04-15 14:07 38.26288 20.30990 8775 ft 283 kts 236°
2026-04-15 14:07 38.25022 20.29128 9656 ft 278 kts 212°
2026-04-15 14:08 38.23286 20.28124 10483 ft 275 kts 189°
2026-04-15 14:08 38.21377 20.28146 11267 ft 278 kts 166°
2026-04-15 14:08 38.19622 20.29202 12016 ft 286 kts 142°
2026-04-15 14:08 38.18349 20.31182 12724 ft 298 kts 120°
2026-04-15 14:09 38.17399 20.33642 12989 ft 322 kts 117°
2026-04-15 14:09 38.16424 20.36307 13288 ft 341 kts 117°
2026-04-15 14:09 38.15454 20.39014 14086 ft 342 kts 116°
2026-04-15 14:09 38.14464 20.41777 14800 ft 345 kts 117°
2026-04-15 14:10 38.13457 20.44562 15487 ft 349 kts 117°
2026-04-15 14:10 38.12433 20.47371 16166 ft 352 kts 117°
2026-04-15 14:10 38.11619 20.50322 16827 ft 359 kts 104°
2026-04-15 14:10 38.11444 20.53514 17490 ft 368 kts 89°
2026-04-15 14:11 38.11623 20.56767 18160 ft 371 kts 89°
2026-04-15 14:11 38.11806 20.60058 18752 ft 375 kts 89°
2026-04-15 14:11 38.11987 20.63375 19315 ft 378 kts 89°
2026-04-15 14:11 38.12161 20.66675 19896 ft 382 kts 89°
2026-04-15 14:12 38.12337 20.70049 20500 ft 385 kts 89°
2026-04-15 14:12 38.12513 20.73454 21045 ft 388 kts 90°
2026-04-15 14:12 38.12691 20.76890 21609 ft 392 kts 90°
2026-04-15 14:12 38.12870 20.80360 22179 ft 395 kts 90°
2026-04-15 14:13 38.13049 20.83858 22661 ft 400 kts 90°
2026-04-15 14:13 38.13226 20.87397 22973 ft 403 kts 90°
2026-04-15 14:13 38.13404 20.90916 23024 ft 391 kts 90°
2026-04-15 14:13 38.13578 20.94286 23027 ft 376 kts 90°
2026-04-15 14:14 38.13742 20.97532 23029 ft 372 kts 90°
2026-04-15 14:14 38.13903 21.00798 23031 ft 370 kts 90°
2026-04-15 14:14 38.14064 21.04064 23033 ft 370 kts 90°
2026-04-15 14:14 38.14223 21.07325 23030 ft 370 kts 90°
2026-04-15 14:15 38.14379 21.10582 23029 ft 370 kts 90°
2026-04-15 14:15 38.14533 21.13844 23030 ft 370 kts 90°
2026-04-15 14:15 38.14687 21.17105 23030 ft 371 kts 90°
2026-04-15 14:15 38.14843 21.20372 23031 ft 371 kts 90°
2026-04-15 14:16 38.15002 21.23643 23031 ft 371 kts 90°
2026-04-15 14:16 38.15160 21.26914 23032 ft 371 kts 90°
2026-04-15 14:16 38.15316 21.30142 23033 ft 371 kts 90°
2026-04-15 14:16 38.15471 21.33414 23033 ft 371 kts 90°
2026-04-15 14:17 38.15623 21.36686 23038 ft 371 kts 90°
2026-04-15 14:17 38.15729 21.39958 23038 ft 369 kts 96°
2026-04-15 14:17 38.15424 21.43166 23039 ft 364 kts 107°
2026-04-15 14:17 38.14643 21.46191 23038 ft 358 kts 118°
2026-04-15 14:18 38.13552 21.49022 23040 ft 357 kts 121°
2026-04-15 14:18 38.12449 21.51847 23036 ft 357 kts 120°
2026-04-15 14:18 38.11367 21.54637 23035 ft 357 kts 120°
2026-04-15 14:18 38.10274 21.57467 23054 ft 357 kts 120°
2026-04-15 14:19 38.09181 21.60296 23059 ft 358 kts 120°
2026-04-15 14:19 38.08082 21.63131 23059 ft 357 kts 120°
2026-04-15 14:19 38.06989 21.65944 23056 ft 357 kts 120°
2026-04-15 14:19 38.05893 21.68766 23048 ft 357 kts 120°
2026-04-15 14:20 38.04797 21.71589 23044 ft 357 kts 120°
2026-04-15 14:20 38.03698 21.74409 23046 ft 357 kts 120°
2026-04-15 14:20 38.02597 21.77229 23044 ft 357 kts 120°
2026-04-15 14:20 38.01508 21.80015 23040 ft 357 kts 120°
2026-04-15 14:21 38.00405 21.82834 23043 ft 357 kts 120°
2026-04-15 14:21 37.99300 21.85652 23042 ft 357 kts 121°
2026-04-15 14:21 37.98196 21.88467 23035 ft 356 kts 120°
2026-04-15 14:21 37.97098 21.91268 23038 ft 357 kts 120°
2026-04-15 14:22 37.95990 21.94097 23051 ft 358 kts 120°
2026-04-15 14:22 37.94884 21.96920 23056 ft 358 kts 120°
2026-04-15 14:22 37.93777 21.99743 23058 ft 358 kts 120°
2026-04-15 14:22 37.92685 22.02524 23059 ft 357 kts 121°
2026-04-15 14:23 37.91578 22.05339 23060 ft 357 kts 120°
2026-04-15 14:23 37.90471 22.08152 23067 ft 357 kts 121°
2026-04-15 14:23 37.89363 22.10964 23066 ft 357 kts 121°
2026-04-15 14:23 37.88252 22.13777 23039 ft 357 kts 120°
2026-04-15 14:24 37.87140 22.16595 23038 ft 358 kts 120°
2026-04-15 14:24 37.86024 22.19418 23038 ft 359 kts 120°
2026-04-15 14:24 37.84906 22.22245 23047 ft 360 kts 120°
2026-04-15 14:24 37.83784 22.25075 23049 ft 360 kts 120°
2026-04-15 14:25 37.82675 22.27871 23052 ft 361 kts 120°
2026-04-15 14:25 37.81552 22.30705 23054 ft 361 kts 120°
2026-04-15 14:25 37.80426 22.33548 23060 ft 361 kts 120°
2026-04-15 14:25 37.79303 22.36387 23061 ft 361 kts 120°
2026-04-15 14:26 37.78177 22.39226 23063 ft 361 kts 120°
2026-04-15 14:26 37.77048 22.42065 23062 ft 361 kts 120°
2026-04-15 14:26 37.75919 22.44898 23064 ft 361 kts 120°
2026-04-15 14:26 37.75170 22.46776 23051 ft 361 kts 120°
2026-04-15 14:27 37.74038 22.49608 23053 ft 361 kts 120°
2026-04-15 14:27 37.72534 22.53360 23057 ft 361 kts 120°
2026-04-15 14:27 37.71399 22.56191 23059 ft 361 kts 120°
2026-04-15 14:27 37.70267 22.59031 23061 ft 362 kts 119°
2026-04-15 14:28 37.69533 22.60966 22905 ft 361 kts 118°
2026-04-15 14:28 37.68512 22.63796 22541 ft 357 kts 117°
2026-04-15 14:28 37.67515 22.66652 22084 ft 355 kts 117°
2026-04-15 14:28 37.66532 22.69500 21642 ft 353 kts 117°
2026-04-15 14:29 37.65550 22.72328 21162 ft 352 kts 117°
2026-04-15 14:29 37.64540 22.75202 20241 ft 365 kts 117°
2026-04-15 14:29 37.63161 22.79074 19622 ft 363 kts 117°
2026-04-15 14:29 37.62120 22.81978 19170 ft 362 kts 117°
2026-04-15 14:30 37.61420 22.83925 18836 ft 362 kts 117°
2026-04-15 14:30 37.60402 22.86754 18522 ft 356 kts 117°
2026-04-15 14:30 37.59379 22.89594 18064 ft 355 kts 117°
2026-04-15 14:30 37.58361 22.92421 17612 ft 353 kts 117°
2026-04-15 14:31 37.57351 22.95224 17204 ft 349 kts 117°
2026-04-15 14:31 37.56347 22.98012 16571 ft 355 kts 118°
2026-04-15 14:31 37.55313 23.00872 15960 ft 361 kts 118°
2026-04-15 14:31 37.54281 23.03732 15537 ft 357 kts 118°
2026-04-15 14:32 37.53261 23.06568 15115 ft 353 kts 118°
2026-04-15 14:32 37.52250 23.09371 14701 ft 350 kts 118°
2026-04-15 14:32 37.51248 23.12137 14057 ft 354 kts 119°
2026-04-15 14:32 37.50223 23.14956 13537 ft 353 kts 118°
2026-04-15 14:33 37.49213 23.17762 12982 ft 350 kts 116°
2026-04-15 14:33 37.48650 23.20748 12526 ft 354 kts 96°
2026-04-15 14:33 37.48898 23.23825 12060 ft 356 kts 77°
2026-04-15 14:33 37.49903 23.26667 11582 ft 356 kts 64°
2026-04-15 14:34 37.51080 23.29386 11111 ft 351 kts 64°
2026-04-15 14:34 37.52228 23.32027 10964 ft 337 kts 64°
2026-04-15 14:34 37.53317 23.34529 10841 ft 324 kts 64°
2026-04-15 14:34 37.54377 23.36965 10715 ft 311 kts 64°
2026-04-15 14:35 37.55394 23.39314 10592 ft 300 kts 64°
2026-04-15 14:35 37.56375 23.41596 10353 ft 293 kts 65°
2026-04-15 14:35 37.57337 23.43845 10056 ft 290 kts 64°
2026-04-15 14:35 37.58288 23.46070 9698 ft 287 kts 64°
2026-04-15 14:36 37.59232 23.48278 9323 ft 285 kts 64°
2026-04-15 14:36 37.60156 23.50433 9181 ft 274 kts 64°
2026-04-15 14:36 37.61047 23.52501 9045 ft 263 kts 64°
2026-04-15 14:36 37.61892 23.54461 8924 ft 253 kts 64°
2026-04-15 14:37 37.62720 23.56388 8665 ft 248 kts 65°
2026-04-15 14:37 37.63535 23.58292 8330 ft 246 kts 65°
2026-04-15 14:37 37.64346 23.60190 7980 ft 245 kts 65°
2026-04-15 14:37 37.65151 23.62077 7630 ft 244 kts 65°
2026-04-15 14:38 37.65952 23.63954 7302 ft 242 kts 65°
2026-04-15 14:38 37.66749 23.65820 6977 ft 241 kts 65°
2026-04-15 14:38 37.67548 23.67685 6661 ft 241 kts 65°
2026-04-15 14:38 37.68498 23.69423 6334 ft 243 kts 49°
2026-04-15 14:39 37.69814 23.70771 5997 ft 243 kts 40°
2026-04-15 14:39 37.71165 23.72037 5573 ft 240 kts 40°
2026-04-15 14:39 37.72481 23.73275 5111 ft 238 kts 40°
2026-04-15 14:39 37.73801 23.74517 4651 ft 235 kts 39°
2026-04-15 14:40 37.75100 23.75737 4433 ft 230 kts 40°
2026-04-15 14:40 37.76372 23.76936 4164 ft 227 kts 40°
2026-04-15 14:40 37.77628 23.78124 3864 ft 224 kts 41°
2026-04-15 14:40 37.78868 23.79296 3570 ft 222 kts 39°
2026-04-15 14:41 37.80067 23.80429 3287 ft 208 kts 39°
2026-04-15 14:41 37.81184 23.81486 3024 ft 194 kts 37°
2026-04-15 14:41 37.82244 23.82490 2776 ft 187 kts 38°
2026-04-15 14:41 37.83240 23.83433 2553 ft 175 kts 38°
2026-04-15 14:42 37.84182 23.84328 2308 ft 165 kts 37°
2026-04-15 14:42 37.85073 23.85187 2018 ft 157 kts 36°
2026-04-15 14:42 37.85912 23.85982 1860 ft 147 kts 37°
2026-04-15 14:42 37.86722 23.86741 1666 ft 144 kts 37°
2026-04-15 14:43 37.87526 23.87498 1506 ft 143 kts 37°
2026-04-15 14:43 37.88324 23.88270 1314 ft 144 kts 36°
2026-04-15 14:43 37.89119 23.89014 1129 ft 142 kts 34°
2026-04-15 14:43 37.89925 23.89749 952 ft 143 kts 36°
2026-04-15 14:44 37.90721 23.90491 692 ft 142 kts 39°
2026-04-15 14:44 37.91488 23.91243 562 ft 141 kts 40°
2026-04-15 14:44 37.92274 23.92007 377 ft 143 kts 38°
2026-04-15 14:44 37.93047 23.92741 312 ft 130 kts 38°
2026-04-15 14:45 37.93695 23.93361 292 ft 97 kts 37°
2026-04-15 14:45 37.94094 23.93738 299 ft 38 kts 37°
2026-04-15 14:45 37.94236 23.93950 301 ft 30 kts 64°
2026-04-15 14:45 37.94281 23.94151 302 ft 19 kts 101°
2026-04-15 14:46 37.94261 23.94308 301 ft 18 kts 52°
2026-04-15 14:46 37.94359 23.94410 302 ft 19 kts 35°
2026-04-15 14:46 37.94467 23.94511 301 ft 20 kts 37°
2026-04-15 14:46 37.94582 23.94622 301 ft 21 kts 37°
2026-04-15 14:47 37.94630 23.94699 301 ft 5 kts 106°
2026-04-15 14:47 37.94612 23.94745 303 ft 8 kts 122°
2026-04-15 14:47 37.94566 23.94824 302 ft 14 kts 127°
2026-04-15 14:47 37.94496 23.94945 302 ft 19 kts 126°
2026-04-15 14:48 37.94413 23.95082 302 ft 20 kts 127°
2026-04-15 14:48 37.94324 23.95233 302 ft 21 kts 127°
2026-04-15 14:48 37.94246 23.95368 301 ft 20 kts 128°
2026-04-15 14:48 37.94157 23.95515 301 ft 14 kts 126°
2026-04-15 14:49 37.94073 23.95541 299 ft 14 kts 216°
2026-04-15 14:49 37.94001 23.95472 299 ft 13 kts 217°
2026-04-15 14:49 37.93932 23.95407 299 ft 12 kts 216°
2026-04-15 14:49 37.93890 23.95330 300 ft 10 kts 250°
2026-04-15 14:50 37.93867 23.95255 301 ft 8 kts 249°
2026-04-15 14:50 37.93843 23.95194 300 ft 7 kts 229°
2026-04-15 14:50 37.93803 23.95154 301 ft 8 kts 217°
2026-04-15 14:50 37.93809 23.95105 300 ft 5 kts 305°
2026-04-15 14:51 37.93829 23.95071 304 ft 4 kts 307°
2026-04-15 14:51 37.93833 23.95066 301 ft 0 kts 308°
2026-04-15 14:51 37.93836 23.95061 301 ft 1 kts 308°
2026-04-15 14:51 37.93836 23.95060 301 ft 0 kts 308°